Zurück zum Katalog

ARIANE 5 R/B

AktivGTO
NORAD 27832·ROCKET BODY·🇫🇷 France

Gestartet Jun 11, 2003 von Guiana Space Centre

Loading…

TLE

AlterndSource: Space-Track

Epoche: Sep 14, 2026, 11:24 UTC

1 27832U 03028C   26257.47563891 -.00000047  00000-0  18740-3 0  9995
2 27832   7.0377  82.4711 7175473  10.9677 358.8001  2.24845407191063

Verfolge ARIANE 5 R/B in Echtzeit mit AllMySat

Download on the App Store